Location: Elmsmere
(40.9284°N, 73.8207°W)
Time: 22:08:19
(UTC+00:00)

STARLINK-2618 - Pass Details

Date: 25 June 2021
Orbit: 348 x 351 km, 53.0° (Epoch: 31 July)

Event Time Altitude Azimuth Distance (km) Brightness Sun altitude
Exits shadow 06:54:10 16° 107° (ESE) 1,038 5.1 -20.3°
Drops below altitude 10° 06:55:19 10° 86° (E) 1,312 6.0 -20.2°
Sets 06:57:43 0° 65° (ENE) 2,160 7.5 -19.9°
